Humboldt, Iowa, United States (50548)
Lat: 42.72N, Lon: 94.22W
Wx Zone: IAZ024
Local Info
Past Weather Observations for Tuesday, July 22, 2014

NOTE: This archive is for the closest National Weather Service station to Humboldt. Information may differ from the station used for current weather conditions.

Click here for Long-term Archive

Time Weather Temperature Dewpoint Humidity Pressure Winds Precip Visibility
23:55
Clear
64°F / 18°C 57°F / 14°C 78% 30.18 in
(1022 mb)
N 4.6 mph
(N 7 kph)
- 10SM
23:35
Clear
66°F / 19°C 57°F / 14°C 73% 30.18 in
(1022 mb)
N 3.5 mph
(N 6 kph)
- 10SM
23:15
Clear
66°F / 19°C 59°F / 15°C 78% 30.18 in
(1022 mb)
N 4.6 mph
(N 7 kph)
- 10SM
22:55
Clear
66°F / 19°C 59°F / 15°C 78% 30.15 in
(1021 mb)
N 4.6 mph
(N 7 kph)
- 10SM
22:35
Clear
68°F / 20°C 61°F / 16°C 78% 30.15 in
(1021 mb)
NNW 3.5 mph
(NNW 6 kph)
- 10SM
22:15
Clear
70°F / 21°C 61°F / 16°C 73% 30.15 in
(1021 mb)
N 3.5 mph
(N 6 kph)
- 10SM
21:55
Clear
70°F / 21°C 61°F / 16°C 73% 30.15 in
(1021 mb)
N 5.8 mph
(N 9 kph)
- 10SM
21:35
Clear
70°F / 21°C 63°F / 17°C 78% 30.15 in
(1021 mb)
Calm - 10SM
21:15
Clear
70°F / 21°C 63°F / 17°C 78% 30.15 in
(1021 mb)
NNW 3.5 mph
(NNW 6 kph)
- 10SM
20:55
Clear
72°F / 22°C 63°F / 17°C 73% 30.15 in
(1021 mb)
Calm - 10SM
20:35
Clear
73°F / 23°C 63°F / 17°C 69% 30.12 in
(1020 mb)
Calm - 10SM
20:15
Clear
73°F / 23°C 63°F / 17°C 69% 30.12 in
(1020 mb)
N 3.5 mph
(N 6 kph)
- 10SM
19:55
Clear
75°F / 24°C 63°F / 17°C 65% 30.12 in
(1020 mb)
N 3.5 mph
(N 6 kph)
- 10SM
19:35
Clear
77°F / 25°C 64°F / 18°C 65% 30.12 in
(1020 mb)
N 3.5 mph
(N 6 kph)
- 10SM
19:15
Clear
77°F / 25°C 64°F / 18°C 65% 30.12 in
(1020 mb)
N 8.1 mph
(N 13 kph)
- 10SM
18:55
Clear
79°F / 26°C 64°F / 18°C 61% 30.12 in
(1020 mb)
N 5.8 mph
(N 9 kph)
- 10SM
18:35
Clear
79°F / 26°C 66°F / 19°C 65% 30.09 in
(1019 mb)
N 8.1 mph
(N 13 kph)
- 10SM
18:15
Clear
81°F / 27°C 66°F / 19°C 62% 30.09 in
(1019 mb)
N 5.8 mph
(N 9 kph)
- 10SM
17:55
Clear
81°F / 27°C 66°F / 19°C 62% 30.09 in
(1019 mb)
N 8.1 mph
(N 13 kph)
- 10SM
17:35
Clear
81°F / 27°C 66°F / 19°C 62% 30.09 in
(1019 mb)
N 5.8 mph
(N 9 kph)
- 10SM
17:15
Clear
81°F / 27°C 66°F / 19°C 62% 30.09 in
(1019 mb)
N 6.9 mph
(N 11 kph)
- 10SM
16:55
Clear
82°F / 28°C 66°F / 19°C 58% 30.09 in
(1019 mb)
N 11.5 mph
(N 19 kph)
- 10SM
16:35
Clear
82°F / 28°C 66°F / 19°C 58% 30.09 in
(1019 mb)
N 8.1 mph
(N 13 kph)
- 10SM
16:15
Clear
82°F / 28°C 68°F / 20°C 62% 30.09 in
(1019 mb)
N 10.4 mph
(N 17 kph)
- 10SM
15:55
Clear
82°F / 28°C 66°F / 19°C 58% 30.09 in
(1019 mb)
NNW 8.1 mph
(NNW 13 kph)
- 10SM
15:35
Clear
82°F / 28°C 70°F / 21°C 66% 30.09 in
(1019 mb)
NNW 12.7 mph
(NNW 20 kph)
- 10SM
15:15
Clear
84°F / 29°C 70°F / 21°C 62% 30.09 in
(1019 mb)
N 9.2 mph
(N 15 kph)
- 10SM
14:55
Clear
82°F / 28°C 70°F / 21°C 66% 30.09 in
(1019 mb)
NNW 8.1 mph
(NNW 13 kph)
- 10SM
14:35
Clear
82°F / 28°C 70°F / 21°C 66% 30.09 in
(1019 mb)
NW 3.5 mph
(NW 6 kph)
- 10SM
14:15
Clear
81°F / 27°C 68°F / 20°C 66% 30.06 in
(1018 mb)
Calm - 10SM
13:55
Partly Cloudy
81°F / 27°C 68°F / 20°C 66% 30.06 in
(1018 mb)
NNW 5.8 mph
(NNW 9 kph)
- 10SM
13:35
Clear
86°F / 30°C 70°F / 21°C 59% 30.06 in
(1018 mb)
NE 8.1 mph
(NE 13 kph)
- 10SM
13:15
Clear
84°F / 29°C 70°F / 21°C 62% 30.06 in
(1018 mb)
N 5.8 mph
(N 9 kph)
- 10SM
12:55
Clear
82°F / 28°C 70°F / 21°C 66% 30.06 in
(1018 mb)
N 8.1 mph
(N 13 kph)
- 7SM
12:35
Clear
81°F / 27°C 68°F / 20°C 66% 30.04 in
(1017 mb)
NE 8.1 mph
(NE 13 kph)
- 10SM
12:15
Clear
82°F / 28°C 70°F / 21°C 66% 30.06 in
(1018 mb)
N 4.6 mph
(N 7 kph)
- 10SM
11:55
Clear
82°F / 28°C 70°F / 21°C 66% 30.04 in
(1017 mb)
NNE 9.2 mph
(NNE 15 kph)
- 10SM
11:35
Clear
82°F / 28°C 68°F / 20°C 62% 30.04 in
(1017 mb)
NE 9.2 mph
(NE 15 kph)
- 10SM
11:15
Clear
84°F / 29°C 70°F / 21°C 62% 30.04 in
(1017 mb)
NNW 8.1 mph
(NNW 13 kph)
- 10SM
10:55
Clear
84°F / 29°C 68°F / 20°C 58% 30.04 in
(1017 mb)
N 6.9 mph
(N 11 kph)
- 10SM
10:35
Clear
82°F / 28°C 70°F / 21°C 66% 30.04 in
(1017 mb)
NW 3.5 mph
(NW 6 kph)
- 10SM
10:15
Clear
82°F / 28°C 68°F / 20°C 62% 30.01 in
(1016 mb)
NW 5.8 mph
(NW 9 kph)
- 10SM
09:55
Clear
82°F / 28°C 70°F / 21°C 66% 30.01 in
(1016 mb)
N 5.8 mph
(N 9 kph)
- 10SM
09:35
Clear
82°F / 28°C 70°F / 21°C 66% 29.95 in
(1014 mb)
SE 5.8 mph
(SE 9 kph)
- 10SM
09:15
Clear
81°F / 27°C 66°F / 19°C 62% 29.95 in
(1014 mb)
E 9.2 mph
(E 15 kph)
- 10SM
08:55
Clear
79°F / 26°C 66°F / 19°C 65% 29.98 in
(1015 mb)
NE 5.8 mph
(NE 9 kph)
- 10SM
08:35
Clear
79°F / 26°C 66°F / 19°C 65% 29.98 in
(1015 mb)
NNE 6.9 mph
(NNE 11 kph)
- 10SM
08:15
Clear
79°F / 26°C 66°F / 19°C 65% 29.98 in
(1015 mb)
NNE 6.9 mph
(NNE 11 kph)
- 10SM
07:55
Clear
79°F / 26°C 66°F / 19°C 65% 30.01 in
(1016 mb)
N 10.4 mph
(N 17 kph)
- 10SM
07:35
Partly Cloudy
79°F / 26°C 72°F / 22°C 79% 30.01 in
(1016 mb)
N 13.8 mph
(N 22 kph)
- 10SM
07:15
Mostly Cloudy
79°F / 26°C 73°F / 23°C 84% 30.01 in
(1016 mb)
NNE 10.4 mph
(NNE 17 kph)
- 7SM
06:55
Overcast
79°F / 26°C 73°F / 23°C 84% 30.01 in
(1016 mb)
NNW 6.9 mph
(NNW 11 kph)
- 8SM
06:35
Partly Cloudy
77°F / 25°C 73°F / 23°C 89% 30.01 in
(1016 mb)
W 9.2 mph
(W 15 kph)
- 8SM
06:15
Clear
75°F / 24°C 72°F / 22°C 89% 29.95 in
(1014 mb)
SW 3.5 mph
(SW 6 kph)
- 7SM
05:55
Clear
75°F / 24°C 72°F / 22°C 89% 29.95 in
(1014 mb)
Calm - 6SM
05:35
Clear
75°F / 24°C 72°F / 22°C 89% 29.95 in
(1014 mb)
SW 3.5 mph
(SW 6 kph)
- 7SM
05:15
Clear
75°F / 24°C 72°F / 22°C 89% 29.92 in
(1013 mb)
SW 4.6 mph
(SW 7 kph)
- 7SM
04:55
Clear
75°F / 24°C 72°F / 22°C 89% 29.92 in
(1013 mb)
SSE 4.6 mph
(SSE 7 kph)
- 7SM
04:35
Clear
75°F / 24°C 72°F / 22°C 89% 29.89 in
(1012 mb)
SSE 5.8 mph
(SSE 9 kph)
- 8SM
04:15
Clear
75°F / 24°C 72°F / 22°C 89% 29.89 in
(1012 mb)
S 5.8 mph
(S 9 kph)
- 9SM
03:55
Clear
75°F / 24°C 73°F / 23°C 94% 29.89 in
(1012 mb)
SSE 5.8 mph
(SSE 9 kph)
- 10SM
03:35
Clear
75°F / 24°C 73°F / 23°C 94% 29.89 in
(1012 mb)
SSE 8.1 mph
(SSE 13 kph)
- 10SM
03:15
Clear
77°F / 25°C 73°F / 23°C 89% 29.89 in
(1012 mb)
SSE 8.1 mph
(SSE 13 kph)
- 10SM
02:55
Clear
77°F / 25°C 73°F / 23°C 89% 29.89 in
(1012 mb)
SSE 9.2 mph
(SSE 15 kph)
- 10SM
02:35
Clear
79°F / 26°C 73°F / 23°C 84% 29.89 in
(1012 mb)
SW 9.2 mph
(SW 15 kph)
- 10SM
02:15
Clear
79°F / 26°C 73°F / 23°C 84% 29.89 in
(1012 mb)
SSE 9.2 mph
(SSE 15 kph)
- 10SM
01:55
Clear
79°F / 26°C 73°F / 23°C 84% 29.89 in
(1012 mb)
SSE 11.5 mph
(SSE 19 kph)
- 10SM
01:35
Clear
79°F / 26°C 73°F / 23°C 84% 29.89 in
(1012 mb)
SSE 12.7 mph
(SSE 20 kph)
- 10SM
01:15
Clear
79°F / 26°C 73°F / 23°C 84% 29.89 in
(1012 mb)
SSE 12.7 mph
(SSE 20 kph)
- 10SM
00:55
Clear
81°F / 27°C 73°F / 23°C 79% 29.89 in
(1012 mb)
SSE 17.3 mph
(SSE 28 kph)
- 10SM
00:35
Clear
81°F / 27°C 73°F / 23°C 79% 29.89 in
(1012 mb)
S 13.8 mph
(S 22 kph)
- 10SM
00:15
Clear
81°F / 27°C 75°F / 24°C 84% 29.89 in
(1012 mb)
S 15 mph
(S 24 kph)
- 10SM
Time Weather Temperature Dewpoint Humidity Pressure Winds Precip Visibility


Weather for websites

WeatherForYou.com, LLC is not responsible for any damages or problems caused by this service. Current weather conditions are obtained from the closest station including government and personal stations which may have varying degrees of accuracy. Weather forecasts are derived from the NOAA NDFD. Like all things, this site belongs to Jesus Christ... He just trusts me to maintain it. If you have any questions or comments email webmaster@weatherforyou.com

Copyright © 2014, WeatherForYou.com LLC. All rights reserved.